Location: Unspecified
(50.1700°N, 6.8600°E)
Time: 04:35:48
(UTC+00:00)

Cosmos 1302 Rocket - Pass Details

Date: 24 January 2019
Orbit: 756 x 777 km, 74.0° (Epoch: 21 October)

Event Time Altitude Azimuth Distance (km) Brightness Sun altitude
Exits shadow 04:24:39 75° 148° (SSE) 790 4.0 -27.4°
Drops below altitude 10° 04:29:24 10° 157° (SSE) 2,282 6.7 -26.6°
Sets 04:31:44 0° 158° (SSE) 3,202 7.5 -26.3°
